TimePDT,TemperatureF,Dew PointF,Humidity,Sea Level PressureIn,VisibilityMPH,Wind Direction,Wind SpeedMPH,Gust SpeedMPH,PrecipitationIn,Events,Conditions,WindDirDegrees,DateUTC
12:15 AM,71.6,33.8,25,29.78,10.0,NNE,8.1,-,N/A,,Clear,30,2013-05-05 07:15:00
12:35 AM,69.8,35.6,28,29.78,10.0,NNE,6.9,-,N/A,,Clear,20,2013-05-05 07:35:00
12:55 AM,69.8,37.4,31,29.77,10.0,NNE,6.9,17.3,N/A,,Clear,30,2013-05-05 07:55:00
1:15 AM,69.8,35.6,28,29.77,10.0,NE,6.9,-,N/A,,Clear,40,2013-05-05 08:15:00
1:35 AM,71.6,33.8,25,29.77,10.0,NE,9.2,-,N/A,,Clear,50,2013-05-05 08:35:00
1:55 AM,71.6,33.8,25,29.75,10.0,NE,11.5,-,N/A,,Clear,40,2013-05-05 08:55:00
2:15 AM,69.8,35.6,28,29.75,10.0,NE,11.5,-,N/A,,Clear,50,2013-05-05 09:15:00
2:35 AM,69.8,35.6,28,29.74,10.0,NE,11.5,-,N/A,,Clear,50,2013-05-05 09:35:00
2:55 AM,71.6,35.6,27,29.73,10.0,ENE,10.4,-,N/A,,Clear,60,2013-05-05 09:55:00
3:15 AM,69.8,35.6,28,29.73,10.0,ENE,12.7,-,N/A,,Clear,60,2013-05-05 10:15:00
3:35 AM,69.8,35.6,28,29.72,10.0,ENE,12.7,-,N/A,,Clear,60,2013-05-05 10:35:00
3:55 AM,69.8,35.6,28,29.72,10.0,ENE,9.2,-,N/A,,Clear,60,2013-05-05 10:55:00
4:15 AM,69.8,35.6,28,29.72,10.0,ENE,10.4,-,N/A,,Clear,60,2013-05-05 11:15:00
4:35 AM,69.8,35.6,28,29.72,10.0,ENE,15.0,21.9,N/A,,Clear,60,2013-05-05 11:35:00
5:15 AM,69.8,35.6,28,29.71,10.0,ENE,12.7,-,N/A,,Clear,60,2013-05-05 12:15:00
5:35 AM,69.8,35.6,28,29.71,10.0,ENE,12.7,18.4,N/A,,Clear,60,2013-05-05 12:35:00
5:55 AM,69.8,35.6,28,29.71,10.0,NE,15.0,20.7,N/A,,Clear,40,2013-05-05 12:55:00
6:15 AM,68.0,35.6,30,29.71,10.0,NE,11.5,17.3,N/A,,Clear,40,2013-05-05 13:15:00
6:35 AM,66.2,37.4,35,29.71,10.0,NE,9.2,-,N/A,,Clear,50,2013-05-05 13:35:00
6:55 AM,64.4,41.0,42,29.71,10.0,ENE,8.1,-,N/A,,Clear,60,2013-05-05 13:55:00
7:15 AM,66.2,42.8,43,29.70,10.0,East,6.9,-,N/A,,Clear,80,2013-05-05 14:15:00
7:35 AM,66.2,42.8,43,29.70,10.0,East,6.9,-,N/A,,Clear,80,2013-05-05 14:35:00
7:55 AM,69.8,41.0,35,29.70,10.0,East,6.9,-,N/A,,Clear,80,2013-05-05 14:55:00
8:15 AM,71.6,39.2,31,29.69,10.0,ENE,9.2,-,N/A,,Clear,70,2013-05-05 15:15:00
8:35 AM,73.4,39.2,29,29.69,10.0,ENE,10.4,21.9,N/A,,Clear,70,2013-05-05 15:35:00
8:55 AM,75.2,39.2,27,29.68,10.0,East,13.8,20.7,N/A,,Clear,80,2013-05-05 15:55:00
9:15 AM,75.2,39.2,27,29.68,10.0,East,13.8,20.7,N/A,,Clear,80,2013-05-05 16:15:00
9:35 AM,75.2,37.4,25,29.67,10.0,ENE,17.3,26.5,N/A,,Clear,70,2013-05-05 16:35:00
9:55 AM,77.0,39.2,26,29.67,10.0,East,11.5,25.3,N/A,,Clear,80,2013-05-05 16:55:00
10:15 AM,78.8,39.2,24,29.67,10.0,ESE,12.7,18.4,N/A,,Clear,110,2013-05-05 17:15:00
10:35 AM,78.8,39.2,24,29.68,10.0,East,12.7,20.7,N/A,,Clear,100,2013-05-05 17:35:00
11:15 AM,80.6,39.2,23,29.67,10.0,East,12.7,16.1,N/A,,Clear,100,2013-05-05 18:15:00
11:35 AM,82.4,42.8,25,29.67,10.0,East,11.5,-,N/A,,Clear,100,2013-05-05 18:35:00
11:55 AM,82.4,41.0,23,29.66,10.0,ESE,12.7,16.1,N/A,,Clear,110,2013-05-05 18:55:00
12:15 PM,82.4,42.8,25,29.66,10.0,ESE,9.2,16.1,N/A,,Clear,110,2013-05-05 19:15:00
12:35 PM,84.2,42.8,23,29.65,9.0,East,9.2,-,N/A,,Clear,100,2013-05-05 19:35:00
12:55 PM,84.2,42.8,23,29.65,10.0,East,4.6,16.1,N/A,,Clear,90,2013-05-05 19:55:00
1:15 PM,64.4,48.2,56,29.66,10.0,West,20.7,-,N/A,,Clear,260,2013-05-05 20:15:00
1:35 PM,62.6,50.0,63,29.67,10.0,West,23.0,-,N/A,,Clear,260,2013-05-05 20:35:00
1:55 PM,62.6,51.8,68,29.67,10.0,West,20.7,-,N/A,,Clear,260,2013-05-05 20:55:00
2:15 PM,62.6,51.8,68,29.69,10.0,WSW,19.6,23.0,N/A,,Clear,250,2013-05-05 21:15:00
2:35 PM,60.8,51.8,72,29.70,10.0,WSW,17.3,24.2,N/A,,Clear,250,2013-05-05 21:35:00
2:55 PM,60.8,51.8,72,29.71,10.0,WSW,17.3,-,N/A,,Clear,250,2013-05-05 21:55:00
3:15 PM,60.8,51.8,72,29.71,10.0,WSW,15.0,-,N/A,,Clear,250,2013-05-05 22:15:00
3:35 PM,60.8,51.8,72,29.72,10.0,WSW,17.3,20.7,N/A,,Clear,250,2013-05-05 22:35:00
3:55 PM,60.8,51.8,72,29.72,10.0,WSW,12.7,-,N/A,,Clear,250,2013-05-05 22:55:00
4:15 PM,60.8,51.8,72,29.72,10.0,West,12.7,-,N/A,,Clear,260,2013-05-05 23:15:00
4:35 PM,60.8,51.8,72,29.73,10.0,WSW,11.5,-,N/A,,Clear,240,2013-05-05 23:35:00
5:15 PM,62.6,50.0,63,29.74,10.0,SW,13.8,21.9,N/A,,Clear,230,2013-05-06 00:15:00
5:35 PM,62.6,48.2,59,29.75,10.0,SW,10.4,19.6,N/A,,Clear,230,2013-05-06 00:35:00
5:55 PM,62.6,48.2,59,29.76,10.0,SSW,15.0,20.7,N/A,,Clear,200,2013-05-06 00:55:00
6:15 PM,62.6,48.2,59,29.77,10.0,SSW,11.5,24.2,N/A,,Clear,200,2013-05-06 01:15:00
6:35 PM,62.6,48.2,59,29.78,10.0,SSW,13.8,25.3,N/A,,Clear,200,2013-05-06 01:35:00
6:55 PM,62.6,46.4,55,29.79,10.0,SW,15.0,24.2,N/A,,Clear,220,2013-05-06 01:55:00
7:35 PM,60.8,48.2,63,29.78,10.0,SW,12.7,21.9,N/A,,Clear,230,2013-05-06 02:35:00
7:55 PM,60.8,46.4,59,29.78,10.0,SW,12.7,18.4,N/A,,Clear,220,2013-05-06 02:55:00
8:15 PM,60.8,48.2,63,29.80,10.0,SW,9.2,16.1,N/A,,Clear,220,2013-05-06 03:15:00
8:35 PM,59.0,48.2,67,29.86,10.0,SSE,16.1,-,N/A,,Clear,150,2013-05-06 03:35:00
8:55 PM,60.8,48.2,63,29.86,10.0,South,10.4,-,N/A,,Clear,180,2013-05-06 03:55:00
9:15 PM,59.0,48.2,67,29.84,10.0,WSW,10.4,17.3,N/A,,Scattered Clouds,240,2013-05-06 04:15:00
9:35 PM,57.2,50.0,77,29.82,10.0,WSW,9.2,-,N/A,,Scattered Clouds,250,2013-05-06 04:35:00
9:55 PM,57.2,50.0,77,29.83,10.0,WNW,6.9,-,N/A,,Partly Cloudy,300,2013-05-06 04:55:00
10:15 PM,55.4,50.0,82,29.82,10.0,WNW,11.5,-,N/A,,Clear,290,2013-05-06 05:15:00
10:35 PM,53.6,50.0,88,29.83,10.0,West,6.9,-,N/A,,Clear,270,2013-05-06 05:35:00
10:55 PM,53.6,50.0,88,29.85,10.0,Calm,Calm,-,N/A,,Partly Cloudy,0,2013-05-06 05:55:00
11:15 PM,53.6,50.0,88,29.85,10.0,Calm,Calm,-,N/A,,Clear,0,2013-05-06 06:15:00
11:35 PM,53.6,50.0,88,29.86,10.0,SSE,3.5,-,N/A,,Clear,160,2013-05-06 06:35:00
11:55 PM,55.4,50.0,82,29.87,10.0,South,3.5,-,N/A,,Clear,180,2013-05-06 06:55:00